| time (UTC) | temp C | wind direction | speed KPH | gust KPH | rain 1hr cm | rain 24hr cm | rain mn cm | humidity % | barometer mb |
| 20260507085018 | 10 | 339 | 3.2 | 6.4 | 0.00 | 0.56 | 0.00 | 69 | 1014.7 |
| 20260507084023 | 10 | 113 | 0.0 | 1.6 | 0.00 | 0.56 | 0.00 | 69 | 1014.7 |
| 20260507083028 | 10 | 343 | 1.6 | 4.8 | 0.00 | 0.56 | 0.00 | 69 | 1014.7 |
| 20260507082053 | 10 | 32 | 1.6 | 4.8 | 0.00 | 0.56 | 0.00 | 66 | 1014.9 |
| 20260507081019 | 10 | 328 | 3.2 | 6.4 | 0.00 | 0.56 | 0.00 | 67 | 1014.9 |
| 20260507080046 | 10 | 324 | 3.2 | 6.4 | 0.00 | 0.56 | 0.00 | 66 | 1015.0 |
| 20260507075029 | 10 | 316 | 6.4 | 9.7 | 0.00 | 0.56 | 0.00 | 64 | 1015.0 |
| 20260507074016 | 10 | 328 | 4.8 | 8.0 | 0.00 | 0.56 | 0.00 | 65 | 1015.1 |
| 20260507073020 | 10 | 307 | 3.2 | 8.0 | 0.00 | 0.56 | 0.00 | 68 | 1015.1 |
| 20260507072027 | 10 | 351 | 3.2 | 8.0 | 0.00 | 0.56 | 0.00 | 68 | 1015.0 |
| 20260507071030 | 11 | 133 | 1.6 | 3.2 | 0.00 | 0.56 | 0.00 | 68 | 1014.9 |
| 20260507070017 | 11 | 303 | 1.6 | 4.8 | 0.00 | 0.56 | 0.00 | 68 | 1015.0 |
| 20260507065022 | 11 | 303 | 4.8 | 6.4 | 0.00 | 0.56 | 0.00 | 69 | 1014.9 |
| 20260507064027 | 11 | 321 | 4.8 | 9.7 | 0.00 | 0.56 | 0.00 | 71 | 1014.9 |
| 20260507063031 | 11 | 318 | 4.8 | 8.0 | 0.00 | 0.56 | 0.00 | 77 | 1015.0 |
| 20260507062018 | 11 | 312 | 4.8 | 9.7 | 0.00 | 0.56 | 0.00 | 80 | 1015.0 |
| 20260507061023 | 11 | 327 | 6.4 | 11.3 | 0.00 | 0.56 | 0.00 | 84 | 1015.0 |
| 20260507055032 | 11 | 304 | 3.2 | 9.7 | 0.00 | 0.56 | 0.00 | 87 | 1014.7 |
| 20260507054020 | 11 | 358 | 3.2 | 4.8 | 0.00 | 0.56 | 0.00 | 87 | 1014.7 |
| 20260507053025 | 11 | 266 | 3.2 | 4.8 | 0.00 | 0.56 | 0.00 | 88 | 1014.9 |
| 20260507052029 | 11 | 298 | 4.8 | 9.7 | 0.00 | 0.56 | 0.00 | 88 | 1014.7 |
| 20260507051036 | 11 | 287 | 3.2 | 4.8 | 0.00 | 0.56 | 0.00 | 87 | 1014.7 |
| 20260507050021 | 11 | 328 | 3.2 | 6.4 | 0.00 | 0.56 | 0.00 | 85 | 1015.0 |
| 20260507045026 | 11 | 307 | 4.8 | 9.7 | 0.00 | 0.56 | 0.00 | 84 | 1014.9 |
| 20260507044031 | 11 | 291 | 6.4 | 9.7 | 0.00 | 0.56 | 0.00 | 85 | 1014.9 |
| 20260507043017 | 12 | 268 | 4.8 | 6.4 | 0.00 | 0.56 | 0.00 | 85 | 1015.1 |
| 20260507042043 | 12 | 289 | 4.8 | 8.0 | 0.00 | 0.56 | 0.00 | 85 | 1015.0 |
| 20260507041107 | 12 | 270 | 3.2 | 4.8 | 0.00 | 0.56 | 0.00 | 85 | 1015.0 |
| 20260507040522 | 12 | 289 | 4.8 | 8.0 | 0.00 | 0.56 | 0.00 | 85 | 1014.9 |
| 20260507035522 | 12 | 299 | 6.4 | 11.3 | 0.00 | 0.56 | 0.56 | 84 | 1014.7 |
| 20260507034520 | 12 | 316 | 6.4 | 9.7 | 0.00 | 0.56 | 0.56 | 86 | 1014.7 |
| 20260507033519 | 12 | 317 | 6.4 | 9.7 | 0.00 | 0.56 | 0.56 | 87 | 1015.0 |
| 20260507032539 | 12 | 295 | 3.2 | 4.8 | 0.00 | 0.56 | 0.56 | 88 | 1014.6 |
| 20260507031516 | 12 | 216 | 1.6 | 4.8 | 0.00 | 0.56 | 0.56 | 88 | 1014.5 |
| 20260507030515 | 12 | 288 | 3.2 | 6.4 | 0.00 | 0.56 | 0.56 | 89 | 1014.5 |
| 20260507025520 | 12 | 245 | 3.2 | 6.4 | 0.00 | 0.56 | 0.56 | 89 | 1014.7 |
| 20260507024524 | 12 | 342 | 4.8 | 6.4 | 0.00 | 0.56 | 0.56 | 89 | 1014.6 |
| 20260507023530 | 12 | 280 | 3.2 | 9.7 | 0.00 | 0.56 | 0.56 | 89 | 1014.7 |
| 20260507022516 | 12 | 286 | 3.2 | 6.4 | 0.00 | 0.56 | 0.56 | 89 | 1014.7 |
| 20260507021521 | 12 | 294 | 6.4 | 9.7 | 0.00 | 0.56 | 0.56 | 89 | 1014.6 |
| 20260507020606 | 13 | 302 | 6.4 | 9.7 | 0.00 | 0.56 | 0.56 | 89 | 1014.5 |
| 20260507015530 | 13 | 357 | 6.4 | 12.9 | 0.00 | 0.56 | 0.56 | 90 | 1014.4 |
| 20260507014518 | 13 | 314 | 6.4 | 11.3 | 0.00 | 0.56 | 0.56 | 91 | 1014.6 |
| 20260507013522 | 13 | 160 | 4.8 | 6.4 | 0.00 | 0.56 | 0.56 | 90 | 1014.4 |
| 20260507012527 | 13 | 301 | 3.2 | 6.4 | 0.00 | 0.56 | 0.56 | 89 | 1014.4 |
| 20260507011532 | 13 | 247 | 3.2 | 8.0 | 0.00 | 0.56 | 0.56 | 89 | 1014.4 |
| 20260507010518 | 14 | 275 | 4.8 | 8.0 | 0.00 | 0.56 | 0.56 | 88 | 1014.4 |
| 20260507005523 | 14 | 278 | 6.4 | 11.3 | 0.00 | 0.56 | 0.56 | 88 | 1014.4 |
| 20260507004528 | 14 | 244 | 3.2 | 6.4 | 0.00 | 0.56 | 0.56 | 88 | 1014.2 |
| 20260507003532 | 14 | 235 | 3.2 | 4.8 | 0.00 | 0.56 | 0.56 | 87 | 1013.9 |
| 20260507002539 | 15 | 278 | 6.4 | 12.9 | 0.00 | 0.56 | 0.56 | 87 | 1013.8 |
| 20260507001524 | 15 | 303 | 8.0 | 14.5 | 0.00 | 0.56 | 0.56 | 87 | 1013.7 |
| 20260507000529 | 15 | 292 | 11.3 | 16.1 | 0.00 | 0.56 | 0.56 | 86 | 1013.7 |
| 20260506235516 | 15 | 317 | 12.9 | 17.7 | 0.00 | 0.56 | 0.56 | 86 | 1013.0 |
| 20260506234541 | 15 | 297 | 9.7 | 14.5 | 0.00 | 0.56 | 0.56 | 87 | 1012.6 |
| 20260506233526 | 16 | 294 | 8.0 | 11.3 | 0.00 | 0.56 | 0.56 | 87 | 1012.2 |
| 20260506232530 | 16 | 297 | 9.7 | 17.7 | 0.00 | 0.56 | 0.56 | 86 | 1012.4 |
| 20260506231516 | 16 | 290 | 11.3 | 14.5 | 0.00 | 0.56 | 0.56 | 87 | 1012.3 |
| 20260506230522 | 16 | 303 | 8.0 | 12.9 | 0.00 | 0.56 | 0.56 | 87 | 1012.2 |
| 20260506225526 | 17 | 290 | 6.4 | 9.7 | 0.00 | 0.56 | 0.56 | 87 | 1012.1 |
| 20260506224531 | 17 | 296 | 6.4 | 8.0 | 0.00 | 0.56 | 0.56 | 87 | 1012.2 |
| 20260506223517 | 17 | 288 | 6.4 | 11.3 | 0.00 | 0.56 | 0.56 | 86 | 1012.1 |
| 20260506222523 | 17 | 290 | 6.4 | 9.7 | 0.00 | 0.56 | 0.56 | 86 | 1011.9 |
| 20260506221526 | 17 | 257 | 6.4 | 9.7 | 0.00 | 0.56 | 0.56 | 84 | 1011.8 |
| 20260506220552 | 18 | 254 | 8.0 | 12.9 | 0.00 | 0.56 | 0.56 | 84 | 1011.7 |
| 20260506215519 | 18 | 270 | 9.7 | 12.9 | 0.00 | 0.56 | 0.56 | 87 | 1011.6 |
| 20260506214523 | 18 | 252 | 4.8 | 9.7 | 0.00 | 0.56 | 0.56 | 99 | 1011.3 |
| 20260506213529 | 17 | 242 | 6.4 | 9.7 | 0.00 | 0.56 | 0.56 | 99 | 1011.3 |
| 20260506212533 | 17 | 257 | 6.4 | 8.0 | 0.00 | 0.56 | 0.56 | 99 | 1011.0 |
| 20260506211521 | 18 | 259 | 4.8 | 6.4 | 0.00 | 0.56 | 0.56 | 98 | 1010.7 |
| 20260506210524 | 18 | 248 | 6.4 | 11.3 | 0.00 | 0.56 | 0.56 | 96 | 1010.6 |
| 20260506205530 | 18 | 243 | 6.4 | 9.7 | 0.00 | 0.56 | 0.56 | 95 | 1010.5 |
| 20260506204515 | 18 | 218 | 4.8 | 8.0 | 0.00 | 0.56 | 0.56 | 93 | 1010.5 |
| 20260506203520 | 18 | 257 | 6.4 | 9.7 | 0.00 | 0.56 | 0.56 | 92 | 1010.3 |
| 20260506202525 | 19 | 252 | 9.7 | 14.5 | 0.00 | 0.56 | 0.56 | 91 | 1010.3 |
| 20260506201524 | 20 | 257 | 9.7 | 14.5 | 0.00 | 0.56 | 0.56 | 91 | 1010.4 |
| 20260506200516 | 19 | 258 | 8.0 | 11.3 | 0.00 | 0.56 | 0.56 | 93 | 1010.5 |
| 20260506195541 | 20 | 244 | 9.7 | 16.1 | 0.00 | 0.56 | 0.56 | 91 | 1010.6 |
| 20260506194520 | 20 | 234 | 6.4 | 11.3 | 0.00 | 0.56 | 0.56 | 94 | 1010.5 |
| 20260506193519 | 20 | 256 | 9.7 | 14.5 | 0.00 | 0.56 | 0.56 | 92 | 1010.5 |
| 20260506192517 | 19 | 240 | 11.3 | 16.1 | 0.00 | 0.56 | 0.56 | 94 | 1010.7 |
| 20260506191516 | 18 | 245 | 9.7 | 16.1 | 0.00 | 0.56 | 0.56 | 98 | 1010.7 |
| 20260506190528 | 17 | 237 | 9.7 | 14.5 | 0.00 | 0.56 | 0.56 | 99 | 1010.8 |
| 20260506185531 | 17 | 256 | 9.7 | 16.1 | 0.00 | 0.56 | 0.56 | 99 | 1010.8 |
| 20260506184539 | 17 | 209 | 9.7 | 14.5 | 0.00 | 0.56 | 0.56 | 98 | 1011.0 |
| 20260506183523 | 18 | 238 | 9.7 | 12.9 | 0.00 | 0.56 | 0.56 | 96 | 1011.0 |
| 20260506182528 | 18 | 203 | 9.7 | 12.9 | 0.00 | 0.56 | 0.56 | 96 | 1010.9 |
| 20260506181533 | 18 | 251 | 12.9 | 16.1 | 0.00 | 0.56 | 0.56 | 93 | 1010.9 |
| 20260506180540 | 18 | 225 | 11.3 | 14.5 | 0.00 | 0.56 | 0.56 | 93 | 1010.9 |
| 20260506175525 | 18 | 235 | 11.3 | 14.5 | 0.00 | 0.56 | 0.56 | 92 | 1010.9 |
| 20260506174529 | 19 | 239 | 11.3 | 17.7 | 0.00 | 0.56 | 0.56 | 90 | 1010.7 |
| 20260506173536 | 20 | 238 | 14.5 | 29.0 | 0.00 | 0.56 | 0.56 | 89 | 1010.7 |
| 20260506172520 | 18 | 230 | 11.3 | 19.3 | 0.00 | 0.56 | 0.56 | 92 | 1010.7 |
| 20260506171545 | 19 | 237 | 9.7 | 14.5 | 0.00 | 0.56 | 0.56 | 92 | 1010.7 |
| 20260506170531 | 19 | 248 | 11.3 | 20.9 | 0.00 | 0.56 | 0.56 | 93 | 1010.7 |
| 20260506165518 | 17 | 212 | 9.7 | 14.5 | 0.00 | 0.56 | 0.56 | 99 | 1010.9 |
| 20260506164522 | 17 | 219 | 11.3 | 17.7 | 0.00 | 0.56 | 0.56 | 99 | 1010.8 |
| 20260506163526 | 17 | 240 | 16.1 | 19.3 | 0.00 | 0.56 | 0.56 | 95 | 1010.8 |
| 20260506162531 | 17 | 244 | 11.3 | 17.7 | 0.00 | 0.56 | 0.56 | 94 | 1010.9 |
| 20260506161518 | 17 | 232 | 12.9 | 19.3 | 0.00 | 0.56 | 0.56 | 93 | 1010.8 |
| 20260506160603 | 18 | 217 | 11.3 | 24.1 | 0.00 | 0.56 | 0.56 | 92 | 1010.7 |
| 20260506155548 | 19 | 237 | 11.3 | 17.7 | 0.00 | 0.56 | 0.56 | 90 | 1010.7 |
| 20260506154532 | 19 | 215 | 11.3 | 19.3 | 0.00 | 0.56 | 0.56 | 90 | 1010.1 |
| 20260506153539 | 17 | 202 | 9.7 | 16.1 | 0.05 | 0.56 | 0.56 | 94 | 1010.4 |
| 20260506152524 | 17 | 229 | 9.7 | 16.1 | 0.10 | 0.56 | 0.56 | 96 | 1010.6 |
| 20260506151529 | 17 | 240 | 8.0 | 11.3 | 0.15 | 0.56 | 0.56 | 98 | 1010.5 |
| 20260506150516 | 16 | 217 | 8.0 | 16.1 | 0.20 | 0.56 | 0.56 | 99 | 1010.1 |
| 20260506145520 | 16 | 183 | 8.0 | 11.3 | 0.25 | 0.56 | 0.56 | 99 | 1010.3 |
| 20260506144525 | 15 | 210 | 9.7 | 16.1 | 0.30 | 0.58 | 0.56 | 99 | 1010.8 |
| 20260506143711 | 15 | 215 | 9.7 | 14.5 | 0.36 | 0.53 | 0.51 | 99 | 1011.0 |
| 20260506142516 | 15 | 185 | 11.3 | 19.3 | 0.36 | 0.48 | 0.46 | 99 | 1011.3 |
| 20260506141521 | 15 | 219 | 9.7 | 17.7 | 0.33 | 0.43 | 0.41 | 99 | 1011.3 |
| 20260506140526 | 15 | 210 | 6.4 | 11.3 | 0.30 | 0.38 | 0.36 | 99 | 1011.2 |
| 20260506135531 | 15 | 181 | 6.4 | 11.3 | 0.25 | 0.33 | 0.30 | 99 | 1011.1 |
| 20260506134538 | 15 | 196 | 8.0 | 12.9 | 0.20 | 0.28 | 0.25 | 99 | 1011.1 |
| 20260506133522 | 16 | 199 | 6.4 | 11.3 | 0.10 | 0.18 | 0.15 | 96 | 1010.9 |
| 20260506132528 | 16 | 224 | 6.4 | 12.9 | 0.05 | 0.13 | 0.10 | 95 | 1010.7 |
| 20260506131532 | 16 | 197 | 4.8 | 9.7 | 0.03 | 0.10 | 0.08 | 94 | 1010.7 |
| 20260506130559 | 16 | 158 | 6.4 | 11.3 | 0.03 | 0.08 | 0.05 | 92 | 1010.8 |
| 20260506125523 | 16 | 175 | 8.0 | 11.3 | 0.03 | 0.08 | 0.05 | 90 | 1010.8 |
| 20260506124528 | 16 | 206 | 8.0 | 12.9 | 0.03 | 0.08 | 0.05 | 91 | 1010.9 |
| 20260506123515 | 16 | 245 | 8.0 | 11.3 | 0.05 | 0.08 | 0.05 | 90 | 1010.7 |
| 20260506122520 | 16 | 219 | 9.7 | 17.7 | 0.05 | 0.08 | 0.05 | 91 | 1011.0 |
| 20260506121546 | 16 | 198 | 6.4 | 12.9 | 0.05 | 0.08 | 0.05 | 92 | 1011.1 |
| 20260506120543 | 16 | 188 | 6.4 | 11.3 | 0.03 | 0.05 | 0.03 | 92 | 1011.1 |
| 20260506115537 | 15 | 208 | 6.4 | 9.7 | 0.03 | 0.05 | 0.03 | 92 | 1011.2 |
| 20260506114522 | 16 | 193 | 8.0 | 12.9 | 0.03 | 0.05 | 0.03 | 91 | 1011.4 |
| 20260506113520 | 16 | 220 | 4.8 | 11.3 | 0.00 | 0.03 | 0.00 | 90 | 1011.2 |
| 20260506112519 | 16 | 202 | 6.4 | 14.5 | 0.00 | 0.03 | 0.00 | 87 | 1011.3 |
| 20260506111517 | 17 | 195 | 9.7 | 14.5 | 0.00 | 0.03 | 0.00 | 82 | 1011.1 |
| 20260506110537 | 18 | 191 | 9.7 | 14.5 | 0.00 | 0.03 | 0.00 | 77 | 1010.8 |
| 20260506105535 | 18 | 217 | 11.3 | 17.7 | 0.00 | 0.03 | 0.00 | 74 | 1010.5 |
| 20260506104532 | 19 | 214 | 11.3 | 20.9 | 0.00 | 0.03 | 0.00 | 69 | 1010.4 |
| 20260506103519 | 19 | 216 | 9.7 | 14.5 | 0.00 | 0.03 | 0.00 | 67 | 1010.1 |
| 20260506102524 | 19 | 217 | 8.0 | 11.3 | 0.00 | 0.03 | 0.00 | 65 | 1010.1 |
| 20260506101529 | 19 | 199 | 6.4 | 9.7 | 0.00 | 0.03 | 0.00 | 65 | 1010.0 |
| 20260506100536 | 20 | 191 | 9.7 | 16.1 | 0.00 | 0.03 | 0.00 | 65 | 1009.9 |
| 20260506095520 | 19 | 188 | 8.0 | 12.9 | 0.00 | 0.03 | 0.00 | 65 | 1009.9 |
| 20260506094525 | 19 | 191 | 9.7 | 19.3 | 0.00 | 0.03 | 0.00 | 65 | 1009.8 |
| 20260506093529 | 20 | 221 | 9.7 | 14.5 | 0.00 | 0.03 | 0.00 | 64 | 1010.0 |
| 20260506092557 | 20 | 216 | 6.4 | 11.3 | 0.00 | 0.03 | 0.00 | 63 | 1010.0 |
| 20260506091521 | 20 | 192 | 11.3 | 16.1 | 0.00 | 0.03 | 0.00 | 62 | 1010.0 |
| 20260506090526 | 20 | 178 | 9.7 | 17.7 | 0.00 | 0.03 | 0.00 | 62 | 1010.1 |